FENGYUN 1C DEB, 30197

Orbit data source: Space-Track

FENGYUN 1C DEB, 30197 is space debris in SSO originally from a launch on Mon, 10 May 1999 UTC launched from the Taiyaun Space Center, China (TSC). Fengyun 1C debris stems from the Chinese weather satellite Fengyun-1C, which was intentionally destroyed by a Chinese anti-satellite missile in 2007. This event dramatically increased the amount of space debris, with thousands of trackable fragments posing hazards to satellites and human spaceflight. The Fengyun 1C debris cloud has become a focal point in discussions about space sustainability and the need for international regulations to prevent the creation of new debris.

Loading next visibility...
Identifier
30197, 1999-025VE
Orbit
SSO
Country
Flag of CNCN / PRC
Related business
Manufacturer
Unknown
Mission
Spacecraft
Bus & Motor
Unknown
Mass
Unknown
Launch date (UTC)
1999-05-10 (27 years ago)
Launch vehicle
Unknown
Launch site
Taiyaun Space Center, China (TSC)
Object type
Payload
Rocket body
Debris
Shape & HBR
Unknown shape, 0.1 m
Radar Cross Section
Medium (>0.1 m² and <1 m²)

Expand to show TLE details & history
Last TLE update: 8 hours ago

TLE from 8 hours ago
0 FENGYUN 1C DEB
1 30197U 99025VE  26170.74046432  .00001577  00000-0  52548-3 0  9998
2 30197  98.9482 108.6864 0058308  19.7341  44.5117 14.38103208 12032
Epoch: 2026-06-19T17:46Z
TLE epoch observation values (Epoch: 2026-06-19T17:46:16.117Z)
Latitude
63.37155°
Longitude
-84.04773°
Altitude
746.047 km
Speed
7.503 km/s
True Right ascension
06h 01m 56s
True Declination
63° 13' 60"
Sunlit
Object was in daylight at epoch
Visualization orbit readout
Latitude
Unknown
Longitude
Unknown
Altitude
Unknown
Speed
Unknown
Apparent Right ascension
Unknown
Apparent Declination
Unknown
Sunlit
N/A
Visualization observer readout
Local Sidereal Time
13:07:10
Azimuth
Unknown
Elevation
Unknown
Doppler factor
Unknown
Orbital elements
Apogee altitude
803.551 km
Perigee altitude
720.286 km
Semi-major axis
7,140.055 km
Eccentricity
0.00583
Inclination
98.9482°
RAAN
108.6864°
Arg. of periapsis
19.7341°
True anomaly
44.98256°
Mean anomaly
44.5117°
Eccentric anomaly
44.74688°
Mean motion
3.59742 °/min
Orbital period
100.07 mins
BSTAR
0.00052548
Loading maneuver chart data...
Computing Atmospheric mass density...

Documentation

Showing up to 5 results
|